Location: Serin Observatory
(40.5200°N, 74.4500°W)
Time: 00:06:31
(UTC+00:00)

SL-8 R/B - Visible Passes

Search period start: 31 May 2016 00:00
Search period end: 10 June 2016 00:00
Orbit: 657 x 669 km, 48.4° (Epoch: 30 May)

Date Brightness Start Highest point End Pass type
(mag) Time Alt. Az. Time Alt. Az. Time Alt. Az.
31 May 4.9 02:02:52 10° NW 02:07:25 39° NNE 02:11:41 11° E visible
31 May 3.9 03:45:26 10° WNW 03:49:39 64° W 03:49:39 64° W visible
01 Jun 5.3 00:51:20 10° WNW 00:55:41 32° N 01:00:02 10° ENE visible
01 Jun 4.0 02:34:04 10° WNW 02:38:53 62° NNE 02:41:05 31° E visible
01 Jun 5.4 04:16:56 10° WNW 04:19:03 22° W 04:19:03 22° W visible
02 Jun 4.8 01:22:43 10° NW 01:27:18 40° NNE 01:31:51 10° E visible
02 Jun 3.6 03:05:17 10° WNW 03:10:06 70° SW 03:10:32 65° S visible
03 Jun 4.0 01:53:55 10° WNW 01:58:44 65° NNE 02:02:04 20° ESE visible
03 Jun 5.0 03:36:50 10° WNW 03:40:02 28° WSW 03:40:02 28° WSW visible
04 Jun 3.8 02:25:08 10° WNW 02:29:56 66° SW 02:31:36 39° SSE visible
05 Jun 3.9 01:13:45 10° WNW 01:18:35 68° NNE 01:23:13 11° ESE visible
05 Jun 4.8 02:56:43 10° WNW 03:00:52 29° SW 03:01:11 29° SW visible
06 Jun 3.9 01:44:58 10° WNW 01:49:45 61° SW 01:52:51 21° SE visible
06 Jun 6.1 03:29:55 10° WSW 03:30:50 11° WSW 03:30:50 11° WSW visible
07 Jun 5.1 02:16:38 10° W 02:20:40 27° SW 02:22:33 21° S visible
08 Jun 4.1 01:04:50 10° WNW 01:09:35 57° SW 01:14:18 10° SE visible
08 Jun 6.1 02:50:20 10° WSW 02:51:20 11° SW 02:52:18 10° SW visible
09 Jun 5.3 01:36:32 10° W 01:40:29 25° SW 01:44:08 11° S visible
